RH
15 19 22 24 24 26 33 38 36 35 40 46 52 60 65 64 67 70 75 80 80 83 88 86 85 85 82 81 78 74 74 71 62 56 55 53 47 43 41 39 39 39 38 41 42 41 41 45 48 48 46 47 49 48 47 46 43 43 45 47 46 44 43 41 38 34 33 32 31 32 34 36 37 36 36 35 36 38 38 35 33 35 37 38 37 36
14 17 20 22 25 27 29 31 29 28 31 35 44 51 50 52 58 61 69 78 79 81 87 85 84 85 86 86 82 78 78 74 67 60 55 53 50 45 41 38 37 37 37 40 42 42 42 45 47 48 47 47 49 48 47 46 43 42 44 45 45 44 43 42 40 36 32 31 30 29 29 31 33 33 33 34 35 36 36 36 35 35 36 37 36 36
14 15 17 20 25 28 29 29 26 25 26 33 45 47 41 46 54 60 69 77 79 82 84 84 84 86 87 85 82 83 82 78 73 67 61 55 53 49 45 40 36 35 35 37 40 41 41 44 44 46 46 47 50 49 48 47 44 42 42 44 44 45 44 42 41 38 33 31 30 29 29 30 30 31 32 32 34 34 34 37 37 36 37 37 37 36
15 15 16 17 21 26 28 28 26 24 25 31 44 45 40 47 52 57 67 71 74 81 81 82 85 86 86 86 84 82 81 81 79 74 69 62 56 51 48 44 38 35 34 35 37 39 39 41 42 43 44 46 49 49 47 47 46 44 42 42 42 44 44 42 41 39 35 31 31 31 30 31 30 29 30 30 32 32 32 35 37 37 38 39 37 37
15 14 15 15 17 20 23 26 26 25 24 27 39 46 45 51 53 55 62 64 71 79 77 78 84 84 83 85 83 79 79 82 82 80 76 69 61 54 50 47 42 37 36 34 35 36 37 39 40 42 44 44 47 49 47 46 47 45 43 42 41 42 43 42 41 40 38 34 31 31 31 31 30 29 29 28 30 29 29 33 36 36 39 40 40 38
15 14 15 14 15 16 19 24 25 23 22 23 38 51 50 54 59 58 58 62 73 81 76 76 85 84 80 80 80 78 79 81 82 83 80 73 68 62 55 50 46 44 42 40 38 36 35 36 38 40 42 43 46 48 47 47 48 45 43 43 42 41 42 42 42 42 40 36 33 31 31 30 30 30 29 27 27 28 28 32 35 36 38 41 42 42
17 16 15 15 15 15 16 21 23 23 21 22 39 54 50 51 59 60 57 60 71 77 75 76 81 84 82 79 76 76 79 80 80 83 81 77 73 68 60 52 47 48 49 46 44 40 36 34 36 38 40 41 44 47 47 48 48 47 44 44 44 42 42 42 42 43 43 39 35 33 32 31 31 31 30 28 28 28 29 31 35 37 38 41 43 43
19 18 18 17 16 15 14 16 19 21 20 23 41 51 46 48 58 61 59 61 67 70 76 80 78 81 83 78 76 76 79 82 80 80 80 79 75 70 66 58 49 48 51 50 47 42 37 33 34 36 38 40 42 44 46 47 49 48 46 45 45 43 42 43 42 44 45 42 39 38 36 34 32 31 31 30 30 31 30 31 34 37 39 41 42 43
21 20 20 18 16 15 14 14 15 18 17 28 49 53 48 52 62 67 69 72 73 74 81 82 77 80 80 75 75 77 79 80 79 77 77 77 76 72 70 65 54 49 51 52 49 46 40 33 32 34 36 37 40 41 43 45 48 49 47 46 46 43 42 43 43 44 45 45 43 43 41 39 35 32 31 30 30 31 30 30 33 36 39 41 41 42
21 21 20 19 17 16 16 14 13 13 15 31 54 59 54 56 61 70 78 81 81 78 79 79 75 78 78 71 72 77 78 75 71 71 74 75 77 74 71 69 62 54 52 53 51 49 44 36 32 34 34 35 37 39 41 44 47 49 49 47 47 44 41 41 43 43 44 45 45 45 45 44 40 36 32 31 31 30 30 30 31 33 36 39 41 41
21 20 20 20 19 18 18 17 14 12 14 31 54 57 55 62 68 73 77 81 85 80 74 73 71 73 74 69 68 71 71 68 65 68 72 73 75 74 71 70 68 62 56 55 53 51 49 42 37 37 36 36 36 38 41 43 45 47 48 48 48 45 42 41 41 42 44 44 45 47 47 46 45 41 36 33 33 32 31 31 32 33 34 36 38 40
22 21 22 21 20 19 19 18 16 13 13 29 49 53 57 69 75 74 76 83 88 81 70 70 71 75 75 68 66 67 66 66 66 67 69 70 72 74 74 72 71 68 63 59 56 53 51 45 43 43 42 40 39 39 40 41 43 43 44 47 48 46 44 42 40 40 42 44 45 47 48 47 46 45 41 36 35 35 34 33 33 34 35 34 35 37
23 23 24 23 21 21 20 20 19 16 16 25 38 46 61 77 78 77 80 84 86 78 70 72 76 78 73 64 64 67 66 66 67 66 68 69 71 74 76 75 72 69 67 64 59 56 52 46 45 47 48 46 43 41 40 39 41 41 41 42 46 47 45 42 40 39 38 41 43 46 48 48 47 47 45 41 38 36 35 35 35 35 35 33 33 36
27 27 25 24 23 22 21 21 20 19 21 26 30 38 59 79 83 82 81 79 78 72 68 72 77 76 67 61 67 70 67 66 66 65 66 68 70 72 75 78 75 72 70 68 64 60 54 47 45 49 52 51 48 45 42 40 40 42 40 39 42 45 45 44 42 40 38 37 39 43 46 48 49 49 48 46 43 39 36 36 36 37 36 33 32 34
31 31 29 27 26 25 23 22 22 21 23 27 30 34 47 64 74 77 76 75 74 73 74 77 77 74 65 62 69 71 68 69 67 64 65 65 68 71 74 78 77 75 73 70 69 66 59 50 47 49 53 53 52 49 45 42 41 42 41 39 38 42 44 45 44 42 39 35 34 38 42 45 47 48 49 48 49 47 41 38 37 37 36 34 32 32
31 32 32 30 28 27 27 25 24 23 25 27 30 35 43 52 60 66 68 65 65 75 84 81 73 70 64 61 66 68 68 71 70 66 65 65 66 69 73 77 77 77 77 74 71 70 65 56 49 49 52 55 55 52 49 45 42 42 42 39 38 39 43 45 44 42 39 35 33 33 37 41 43 46 47 48 50 50 46 43 41 40 38 35 33 32
32 34 34 33 31 29 29 30 27 26 29 31 31 36 42 47 52 60 66 62 56 61 69 70 70 68 63 59 65 69 69 72 74 70 66 65 65 67 71 74 75 76 76 76 74 72 69 63 55 51 52 55 56 55 52 48 45 43 43 40 38 39 42 44 44 42 39 36 33 31 32 35 39 43 46 47 48 50 49 47 46 44 43 40 38 35
32 35 37 35 34 32 30 32 31 28 31 33 34 35 36 42 48 56 67 68 59 53 55 64 71 69 67 65 65 70 72 71 75 73 69 65 64 66 70 72 73 73 73 75 77 75 72 69 62 55 54 56 57 56 55 52 48 46 45 43 40 39 41 44 45 42 39 37 35 33 30 30 33 38 43 46 47 49 48 48 47 47 46 44 42 40
30 35 39 37 36 37 34 33 35 33 31 32 37 36 33 40 49 51 59 65 65 60 57 63 68 68 72 74 71 75 76 75 77 77 73 69 66 67 70 72 73 73 72 72 76 78 76 72 68 61 57 58 59 59 58 55 52 49 47 46 44 40 40 43 45 43 39 36 36 35 33 30 30 32 37 42 46 48 47 47 47 47 47 46 45 44
31 34 40 39 36 38 38 38 39 40 36 33 37 40 37 41 47 48 51 55 59 61 61 61 63 68 74 76 78 81 81 81 81 79 76 72 70 70 71 75 76 76 75 75 76 79 78 75 72 66 61 60 61 61 61 60 57 53 50 49 48 45 42 43 44 42 38 37 37 38 36 33 30 29 32 36 41 45 46 47 47 46 46 46 46 45
34 34 38 41 39 39 41 41 41 41 42 39 39 44 46 45 45 43 43 47 51 58 64 62 60 68 74 74 78 82 83 84 82 80 78 75 76 76 76 78 79 79 81 83 83 82 80 78 75 70 66 64 64 63 63 61 59 57 53 51 51 50 46 44 45 44 40 38 37 38 37 35 32 30 30 31 35 40 43 46 48 47 46 46 46 46
34 34 37 42 43 41 41 41 41 41 43 44 44 47 48 48 48 44 38 42 45 49 59 61 61 71 76 73 75 79 81 81 80 79 79 78 79 80 80 79 80 80 82 87 90 89 84 81 77 72 67 66 67 67 65 64 62 60 57 54 53 53 50 48 47 47 45 42 40 38 38 36 34 32 30 30 31 34 38 42 46 48 47 46 45 46
35 38 40 42 45 45 43 42 43 43 42 44 46 47 47 49 54 52 42 39 40 45 53 60 66 74 74 71 74 77 77 79 80 80 79 79 80 80 82 81 80 81 83 85 90 91 89 85 79 72 67 65 66 65 66 67 66 64 62 60 57 55 54 51 50 50 50 47 44 41 39 38 36 34 31 30 30 32 34 38 42 45 46 46 45 45
36 38 38 42 50 52 47 44 45 45 46 47 47 47 48 51 56 55 49 43 42 47 50 57 69 75 71 71 73 73 74 78 80 80 78 80 81 80 84 84 82 83 84 84 86 88 88 86 81 76 70 66 65 65 65 66 67 67 67 65 62 60 60 58 56 54 53 52 50 46 43 40 38 36 34 31 29 30 32 36 38 41 42 44 45 45
31 36 39 43 52 54 50 49 48 45 48 52 51 49 50 54 56 53 50 47 49 55 53 54 72 80 73 71 74 73 73 74 76 78 77 77 78 79 82 83 82 84 83 83 84 85 85 84 82 80 75 71 70 68 68 69 69 70 71 70 68 65 64 64 62 58 55 54 52 50 46 43 40 38 36 34 31 29 32 34 36 37 39 42 44 45
28 35 41 44 49 50 50 53 52 49 49 52 53 55 54 57 62 59 52 49 55 65 63 60 73 83 76 73 76 74 73 73 73 75 74 73 74 76 78 77 79 82 82 81 82 83 85 85 84 84 82 79 76 74 74 74 74 74 74 74 74 72 69 69 67 64 60 56 54 53 51 47 43 40 38 37 34 31 31 32 34 35 37 40 42 44
33 36 41 47 50 48 46 49 51 50 52 52 55 59 58 59 65 67 64 63 65 72 74 69 72 78 79 78 78 75 72 71 69 69 71 71 70 72 74 74 76 79 80 81 81 82 84 85 86 88 88 86 83 80 78 77 77 78 76 76 77 77 76 74 73 72 67 61 57 55 53 50 46 43 41 40 38 35 32 31 33 35 37 39 41 43
34 32 36 44 46 45 45 46 46 47 50 53 58 63 62 60 66 71 73 73 72 73 77 77 73 74 77 77 76 75 71 67 66 67 69 70 69 71 73 73 74 75 74 76 78 80 82 84 85 88 90 89 87 84 80 78 79 81 81 79 79 81 81 80 78 79 78 74 68 60 55 52 49 45 43 42 41 39 36 33 32 33 36 39 40 43
32 28 29 32 34 38 41 42 43 46 48 53 59 65 64 62 66 72 76 77 76 76 80 81 77 75 75 73 73 74 71 68 68 70 72 71 69 71 73 73 74 73 70 70 74 78 81 83 85 87 89 89 87 84 83 80 80 82 83 81 81 82 82 81 79 80 81 82 80 73 63 56 51 47 45 43 41 41 39 36 34 33 34 37 40 42
28 29 30 30 30 33 36 37 41 45 49 53 56 62 66 64 64 69 72 72 76 83 87 85 81 78 74 71 71 73 73 72 73 75 75 72 69 69 72 73 75 75 72 71 74 78 80 81 84 86 89 90 88 86 86 84 82 84 83 80 80 83 83 82 82 80 78 79 81 81 76 66 57 50 47 45 41 41 41 40 38 36 34 34 37 40
22 27 34 35 33 33 35 38 40 43 49 52 54 59 66 67 66 67 67 65 71 82 89 89 87 83 77 72 72 74 74 75 76 76 74 72 69 69 70 72 74 76 76 74 75 77 79 79 80 82 85 88 88 88 90 88 86 87 85 81 80 82 84 85 85 82 79 77 78 81 82 79 70 59 50 47 44 41 42 43 42 40 38 36 35 36
20 24 30 35 36 34 36 41 43 43 45 49 52 58 65 67 67 67 67 67 69 77 83 87 88 84 78 74 73 75 75 75 75 73 72 71 70 69 69 70 71 75 77 76 75 76 76 78 80 82 83 84 86 88 89 89 89 88 88 86 85 85 87 89 88 86 83 80 79 80 81 84 83 72 60 53 49 46 46 46 44 42 40 39 38 37
25 26 25 29 33 33 36 43 46 44 44 50 55 57 61 65 67 68 70 69 71 75 79 81 84 83 78 73 73 73 73 73 72 70 69 70 70 69 69 70 70 72 72 72 73 75 76 78 80 82 83 82 83 85 86 87 88 88 88 88 87 87 88 90 91 91 90 86 82 79 79 82 86 82 73 64 56 52 50 49 48 47 45 43 42 41
32 32 27 27 29 32 39 46 48 48 49 52 55 55 57 62 64 67 70 69 71 76 78 78 79 78 74 71 72 72 71 71 71 70 68 68 68 68 69 70 71 70 69 68 69 72 74 75 77 79 80 80 81 81 82 83 85 86 87 88 87 87 86 86 88 90 92 93 88 83 81 82 83 83 81 74 66 59 56 54 53 55 56 54 50 48
32 32 29 30 30 36 46 51 51 54 54 53 54 55 56 59 60 61 65 69 72 76 78 77 74 71 69 69 70 69 68 66 67 68 69 69 69 69 70 71 71 69 68 66 65 65 65 67 70 72 74 75 77 77 78 81 85 87 87 87 87 86 85 86 88 88 89 92 93 90 87 85 82 82 82 80 76 71 66 62 60 61 64 65 62 62
30 30 29 30 31 37 47 53 53 55 56 54 55 56 55 57 59 58 60 67 73 76 78 77 74 70 69 70 68 65 63 61 61 65 69 69 69 68 68 68 68 67 66 64 62 60 60 62 66 67 68 69 70 73 76 80 86 88 88 88 88 88 89 92 95 93 91 93 95 97 95 91 87 87 84 82 81 80 78 74 69 67 68 70 70 72
29 31 28 27 31 38 49 55 54 55 57 55 55 58 59 61 61 59 60 66 72 74 78 80 78 73 71 71 69 65 61 59 59 62 66 68 69 68 67 67 66 65 63 61 59 58 58 61 63 63 65 66 67 70 73 75 79 83 86 88 88 88 89 93 95 94 94 95 95 98 99 96 92 93 91 86 84 86 87 83 78 76 76 75 75 75
30 30 27 27 32 40 50 57 60 62 61 57 57 60 61 60 61 59 61 66 69 69 74 81 81 76 74 73 71 68 64 62 63 64 63 64 68 68 67 67 66 64 62 60 59 59 58 60 61 61 63 65 67 70 72 72 74 77 80 84 85 85 88 90 92 92 94 94 93 94 96 94 92 94 94 90 88 89 89 86 83 82 82 80 79 77
32 35 35 32 33 39 45 52 59 61 58 56 57 58 56 57 59 58 60 65 67 67 71 80 84 79 76 75 73 69 66 65 67 67 61 61 65 67 67 67 66 64 62 61 61 61 61 62 63 62 62 64 68 71 71 72 72 73 75 79 81 83 85 87 91 92 92 92 93 93 93 91 91 92 93 92 91 90 90 87 85 86 86 85 83 81
33 40 40 37 37 41 43 46 51 51 50 54 57 56 54 55 56 58 63 67 68 69 73 78 81 80 77 75 73 70 67 65 66 65 62 60 62 64 65 66 65 63 61 60 61 61 61 62 64 65 64 66 69 71 73 75 74 72 72 75 77 80 82 84 88 92 93 92 93 93 92 91 91 91 91 91 91 90 90 89 87 86 87 88 87 84
38 42 44 43 44 46 45 45 46 46 47 51 53 53 53 54 57 63 67 66 66 71 74 75 78 80 78 76 73 70 67 64 61 60 60 59 59 62 65 66 64 62 60 58 59 59 59 60 63 64 65 65 66 68 72 76 78 77 74 72 73 77 80 82 84 88 90 92 92 92 93 92 92 92 92 92 92 91 91 90 88 87 88 89 89 88
41 43 44 44 44 46 49 48 45 44 45 46 50 52 51 54 61 67 66 63 64 67 70 71 74 76 75 75 73 69 67 64 60 58 57 56 57 61 64 65 63 62 61 60 60 61 60 60 61 61 61 61 62 64 66 69 73 76 75 72 71 73 75 78 79 81 84 87 88 89 90 90 90 91 91 91 92 92 93 93 92 91 90 89 89 90
41 41 42 43 43 46 50 47 41 41 43 43 48 53 53 54 59 62 62 64 66 66 66 67 68 68 68 68 68 67 66 63 60 59 58 57 57 59 62 63 63 62 61 62 61 61 60 59 60 58 57 56 58 60 61 61 62 65 67 68 69 70 71 72 72 73 76 79 81 82 83 84 85 87 88 89 89 89 89 91 92 93 92 91 91 90
42 43 44 45 45 46 47 45 41 40 42 43 45 50 52 53 54 55 57 64 67 67 66 64 63 63 63 62 63 63 61 59 59 61 62 62 62 63 63 63 63 62 61 61 61 61 59 58 57 56 54 52 52 54 56 57 57 56 57 59 62 64 66 68 69 70 71 72 73 75 76 77 79 81 84 86 86 85 85 87 88 88 88 88 90 90
42 44 43 43 45 47 47 46 44 41 42 43 44 45 47 48 50 51 53 57 61 62 60 58 56 58 58 57 58 59 57 57 58 60 62 64 64 62 60 58 59 62 62 63 63 62 61 60 58 57 54 52 50 48 49 51 54 54 55 58 59 59 60 63 65 67 68 69 70 71 72 74 76 78 80 82 82 81 82 83 83 84 84 84 85 86
45 45 44 44 46 48 47 46 45 43 42 42 41 42 43 42 44 45 47 52 54 53 52 51 50 50 51 51 51 52 53 54 54 55 58 60 61 59 55 54 56 58 59 60 59 58 58 59 58 57 56 54 52 50 48 49 50 51 54 57 59 59 59 60 60 61 62 65 67 68 69 70 72 73 76 78 78 77 75 74 73 75 77 77 80 82
48 46 48 49 48 49 50 50 49 48 46 44 41 40 39 38 38 39 40 43 44 45 46 45 45 46 47 47 48 48 49 49 48 49 52 55 57 55 51 50 52 53 53 55 56 56 56 56 56 56 55 54 53 52 50 50 50 50 52 55 56 57 58 59 59 58 59 60 61 63 63 62 62 63 66 69 71 70 69 69 67 66 68 70 73 77
49 47 51 53 51 49 50 51 50 49 48 45 42 40 38 37 36 37 37 38 39 42 44 43 43 45 45 46 47 48 48 47 46 45 45 47 49 48 46 46 48 48 50 52 53 55 56 56 56 56 54 53 53 52 51 49 49 50 51 52 54 56 57 57 57 58 59 59 59 59 59 58 58 57 57 58 58 58 60 61 61 63 68 70 72 74
50 47 50 54 54 50 49 49 50 49 47 44 42 40 40 38 37 37 38 38 40 42 43 44 44 45 44 44 45 45 45 46 46 44 43 43 43 43 42 42 43 44 46 47 48 51 54 56 56 56 55 55 55 55 54 51 48 48 49 51 53 54 55 55 55 56 59 60 59 59 58 57 56 55 53 53 53 51 51 53 53 57 64 71 74 74
50 51 52 52 51 50 48 46 46 45 44 42 39 39 40 39 39 39 39 40 41 41 42 43 44 45 46 46 45 44 44 44 44 44 43 41 40 40 39 38 39 40 41 40 41 46 51 54 55 56 57 57 56 55 55 53 49 47 47 48 50 52 53 54 54 55 58 60 60 60 60 58 57 55 54 53 52 49 47 48 49 51 54 60 65 68
49 49 49 47 45 44 42 40 40 39 38 38 37 37 37 36 36 36 37 37 37 38 39 40 41 43 44 44 44 44 44 44 44 43 43 41 40 39 38 38 38 39 39 39 39 43 46 49 50 52 54 55 55 55 54 54 51 49 46 44 45 46 47 49 50 52 56 58 61 63 64 63 61 60 58 56 54 51 48 47 48 50 50 52 55 56